Regional Weather Roundup
Issued by NWS Nashville, TN

Home | Current Version | Previous Version | Text Only | Print | Product List | Glossary On
Versions: 1 2 3 4 5 6 7 8 9 10 11 12 13 14 15 16 17 18 19 20 21 22 23 24 25 26 27 28
000
ASUS44 KOHX 202210
RWROHX
MIDDLE TENNESSEE HOURLY WEATHER ROUNDUP
NATIONAL WEATHER SERVICE NASHVILLE TN
500 PM CDT WED SEP 20 2017

NOTE: "FAIR" INDICATES FEW OR NO CLOUDS BELOW 12,000 FEET WITH
NO SIGNIFICANT WEATHER AND/OR OBSTRUCTIONS TO VISIBILITY.

* THESE REPORTS ARE NOT UNDER NWS QUALITY CONTROL AND MAY NOT
  REPORT WEATHER SUCH AS PRECIPITATION AND FOG.


TNZ005>011-023>034-057-059-062>066-078-080-202300
...NORTHERN MIDDLE TENNESSEE...

CITY           SKY/WX    TMP DP  RH WIND       PRES   REMARKS
CROSSVILLE     CLOUDY    75  63  66 VRB5      30.08R
GALLATIN       SUNNY     90  68  48 S6        30.01S HX  93
PORTLAND       SUNNY     88  70  55 SW5       29.99S HX  92
SPARTA         SUNNY     86  68  54 CALM      30.01S
SPRINGFIELD    MOSUNNY   84  72  65 CALM      29.97S
WEST NASHVILLE SUNNY     86  72  62 NW7       29.96F HX  92
$$
TNZ056-058-060-061-075>077-079-093>097-202300
...SOUTHERN MIDDLE TENNESSEE...

CITY           SKY/WX    TMP DP  RH WIND       PRES   REMARKS
COLUMBIA       MOSUNNY   88  70  55 S5        29.96F HX  92
FAYETTEVILLE   MOSUNNY   88  68  51 VRB3      30.00  HX  91
MCMINNVILLE    SUNNY     88  70  55 W5        30.02S HX  92
PULASKI        SUNNY     90  70  51 SW5       29.98F HX  95
SHELBYVILLE    SUNNY     88  68  51 SW6       29.99F HX  91
TULLAHOMA      MOSUNNY   86  64  48 W6        30.03S
WINCHESTER     SUNNY     88  68  51 NW3         N/A  HX  91
$$


...KEY TO REMARKS...
VSB - VISIBILITY IN MILES
WCI - WIND CHILL INDEX
HX  - HEAT INDEX





USA.gov is the U.S. government's official web portal to all federal, state and local government web resources and services.